Location: Saint Louis
(38.6272°N, 90.1978°W)
Time: 09:06:31
(UTC-05:00)

ISS - Pass Details

Date: 21 May 2013
Orbit: 402 x 403 km, 51.6° (Epoch: 30 June)

Event Time Altitude Azimuth Distance (km) Brightness Sun altitude
Exits shadow 03:50:07 21° 299° (WNW) 1,029 -1.4 -18.6°
Maximum altitude 03:51:18 25° 332° (NNW) 899 -1.4 -18.4°
Drops below altitude 10° 03:54:12 10° 30° (NNE) 1,517 0.8 -18.0°
Sets 03:56:32 0° 44° (NE) 2,374 2.3 -17.7°
